This is the latest recevied weather packets stored in our database for station/object XE2OR-10. If no packets are shown the sender has not sent any weather packets the latest 10 day(s).
| Time | Temp. | Humidity | Pressure | Rain* | Wind** | Luminosity | Snow |
|---|---|---|---|---|---|---|---|
| 1777321129 | 32.22° C | 79% | 999.3 hPa | 0 mm | - | 727 W/m² | - |
| 1777320833 | 32.22° C | 79% | 999.4 hPa | 0 mm | - | 717 W/m² | - |
| 1777320529 | 32.22° C | 78% | 999.3 hPa | 0 mm | - | 707 W/m² | - |
| 1777320228 | 31.67° C | 79% | 999.4 hPa | 0 mm | - | 731 W/m² | - |
| 1777319929 | 31.67° C | 79% | 999.6 hPa | 0 mm | - | 777 W/m² | - |
| 1777319633 | 32.22° C | 79% | 999.6 hPa | 0 mm | - | 800 W/m² | - |
| 1777319329 | 32.22° C | 79% | 999.7 hPa | 0 mm | - | 809 W/m² | - |
| 1777319033 | 32.22° C | 79% | 999.6 hPa | 0 mm | - | 797 W/m² | - |
| 1777318729 | 31.11° C | 80% | 1000 hPa | 0 mm | - | 808 W/m² | - |
| 1777318429 | 30.56° C | 82% | 1000 hPa | 0 mm | - | 261 W/m² | - |
| 1777318129 | 31.11° C | 82% | 999.9 hPa | 0 mm | - | 671 W/m² | - |
| 1777317832 | 31.11° C | 80% | 1000 hPa | 0 mm | - | 702 W/m² | - |
| 1777317529 | 30.56° C | 82% | 1000.1 hPa | 0 mm | - | 694 W/m² | - |
| 1777317233 | 31.11° C | 82% | 1000 hPa | 0 mm | - | 725 W/m² | - |
| 1777316929 | 30.56° C | 82% | 1000.1 hPa | 0 mm | - | 303 W/m² | - |
| 1777316629 | 31.11° C | 81% | 1000.5 hPa | 0 mm | - | 807 W/m² | - |
| 1777316329 | 30.56° C | 82% | 1000.3 hPa | 0 mm | - | 482 W/m² | - |
| 1777316032 | 30.56° C | 82% | 1000.4 hPa | 0 mm | - | 471 W/m² | - |
| 1777315729 | 31.67° C | 80% | 1000.2 hPa | 0 mm | - | 439 W/m² | - |
| 1777315433 | 31.67° C | 81% | 1000.2 hPa | 0 mm | - | 626 W/m² | - |
| 1777315130 | 31.11° C | 82% | 1000.4 hPa | 0 mm | - | 809 W/m² | - |
| 1777314829 | 31.11° C | 80% | 1000.3 hPa | 0 mm | - | 837 W/m² | - |
| 1777314529 | 31.11° C | 81% | 1000.3 hPa | 0 mm | - | 863 W/m² | - |
| 1777314232 | 31.11° C | 81% | 1000.5 hPa | 0 mm | - | 811 W/m² | - |
| 1777313929 | 31.11° C | 81% | 1000.5 hPa | 0 mm | - | 844 W/m² | - |
* Rain latest hour (hover to see other rain measurements)
** Current wind speed in m/s (hover to see current wind gust speed)